Torna al catalogo

STARLINK-34028

AttivoComunicazioniVLEO
NORAD 63973·PAYLOAD·🇺🇸 United States

Lanciato May 13, 2025 da Cape Canaveral Space Force Station

Loading…

Prossimi Passaggi (prossime 24 ore)

TLE

AggiornatoSource: CelesTrak SupGP

Epoca: Sep 15, 2026, 02:15 UTC

1 63973C 25099X   26258.09423611 -.00049768  00000+0 -18028-2 0  2586
2 63973  43.0024 183.3266 0001279 271.9756 339.4724 15.27600169    18

Traccia STARLINK-34028 in tempo reale con AllMySat

Download on the App Store